Погода в Андижане

Узбекистан     40°38′56″N   72°21′49″E
темп.,
°C
ветер,
м/с
пор.,
м/с
влажн.,
%
обл.,
%
осадки,
мм/ч
давл.,
гПа
погр.,
м
3 марта, ср
ср323:00+11всв4842100 0.0 1025308
02:00+10всв2555100 0.0 1024260
05:00+9ссз2362100 0.1 1024195
08:00+8ю1372100 0.6 1024320
11:00+8в1275100 1.3 1022454
14:00+8св3481100 0.9 1020326
17:00+8всв3577100 1.3 1021349
20:00+8всв3677100 0.1 1024275
4 марта, чт
чт423:00+7всв367899 0.1 1025225
02:00+6всв238091 0.0 102491
05:00+6св127795 0.0 102434
08:00+7всв117194 0.0 102563
11:00+11сз115191 0.0 1021444
14:00+13сз2241100 0.0 1019706
17:00+13юз2241100 0.0 1020323
20:00+11сз2348100 0.1 102376
5 марта, пт
пт523:00+9всв2383100 2.6 1024195
02:00+8св2480100 0.8 1024327
05:00+9юв2578100 1.4 1025372
08:00+9зюз4769100 0.1 10271057
11:00+11з2350100 0.3 10261261
14:00+13всв3246100 0.0 10241359
17:00+12всв335296 0.0 1025984
20:00+10св355863 0.0 1027278
6 марта, сб
сб623:00+9св116031 0.0 102834
02:00+7всв225617 0.0 102667
05:00+7всв225657 0.0 102363
08:00+7в234579 0.0 1020147
11:00+12св232885 0.0 1014510
14:00+14ссз1125100 0.0 1009588
17:00+14з2224100 0.0 1011479
20:00+13сз1135100 0.0 101329
7 марта, вс
вс723:00+12ссв1140100 0.0 101624
02:00+10всв2244100 0.0 101542
05:00+9зюз3551100 0.0 1016166
08:00+9юз3855100 0.0 1018566
11:00+11з2353100 0.0 1017948
14:00+14зюз014194 0.0 10151196
17:00+14ссз014096 0.0 10151358
20:00+12зсз124972 0.0 1018100